sat.trackr.live / text

‹ back to catalog

STARLINK-34757

NORAD 64850 · 2025-152J

PAYLOAD ACTIVE UNKNOWN

§ Identity

Operator
Country
US
Launch date
2025-07-19
Launch site
AFWTR
Launch vehicle
Mass (kg)
RCS (m²)

Purposes: comms

External: N2YO · Heavens-Above · Gunter

§ Orbital elements

Epoch: 2026-09-20T19:53:02.012928Z

Period
93.91 min
Inclination
97.2846°
Eccentricity
0.0001883
Mean motion
15.33453467 rev/d
Perigee alt
464.2 km
Apogee alt
466.8 km
Semi-major
6,843.7 km
B*
2.8588e-4
RAAN
114.3701°
Arg perigee
89.4991°
Mean anomaly
270.6467°
Rev number
6,487

§ Raw data

STARLINK-347571 64850U 25152J   26263.82849552  .00009168  00000+0  28588-3 0  99972 64850  97.2846 114.3701 0001883  89.4991 270.6467 15.33453467 64876

JSON: /api/v1/satellites/64850 · /tle

For live sub-satellite position, see the globe view (requires WebGL).

§ Visibility from observer

Set your observer location to see the next 7 days of passes ≥ 10°. The values pass through the URL so the page stays shareable.

No JS? Fill the form by hand. The geolocation button needs JavaScript.